{"data":{"norad_id":69560,"intl_designator":"2026-135Q","name":"STARLINK-37950","alt_names":[],"object_type":"PAYLOAD","status":"ACTIVE","operator":null,"country":"US","launch_date":"2026-06-15","launch_site_code":"AFWTR","launch_vehicle":null,"mission":null,"orbit_class":"UNKNOWN","rcs_meters":null,"size_class":null,"mass_kg":null,"dimensions":null,"purposes":["comms"],"wikipedia_slug":null,"has_3d_model":false,"image_url":null,"decayed_at":null,"tle_current":{"epoch":"2026-09-20T01:22:06.866688Z","epoch_age_seconds":59947,"freshness":"FRESH","line1":"1 69560U 26135Q   26263.05702392  .00014041  00000+0  43636-3 0  9994","line2":"2 69560  97.2860 290.7716 0000552 156.6849 203.4419 15.33450368 14931","mean_motion":15.33450368,"eccentricity":5.52e-5,"inclination_deg":97.286,"raan_deg":290.7716,"arg_perigee_deg":156.6849,"mean_anomaly_deg":203.4419,"bstar":0.00043636,"rev_number":1493,"period_min":93.905875928552,"perigee_km":465.14943286942,"apogee_km":465.90497339745,"semimajor_km":6843.6642031334,"source":"CELESTRAK","updated_at":"2026-09-20T09:00:44.244440Z"}}}